Weather History for KAQP - February, 2013

Change the Weather History Date:

Thursday, February 7, 2013

  Actual Average Record
Temperature  
Mean Temperature 22 °F -  
Max Temperature 26 °F 23 °F 46 °F (2002)
Min Temperature 17 °F 6 °F -18 °F (2003)
Degree Days  
Heating Degree Days 44    
Moisture  
Dew Point 20 °F    
Average Humidity 86    
Maximum Humidity 93    
Minimum Humidity 80    
Precipitation  
Precipitation 0.00 in - - ()
Sea Level Pressure  
Sea Level Pressure 30.16 in    
Wind  
Wind Speed 8 mph (North)    
Max Wind Speed 15 mph    
Max Gust Speed -    
Visibility 8 miles    
Events      
Averages and records for this station are not official NWS values.
T = Trace of Precipitation, MM = Missing Value Source: NWS Daily Summary

Daily Weather History Graph

Daily Weather History Graph

Search for Another Location

Airport or City:

Trip Planner

Search our weather history database for the weather conditions in past years. The results will help you decide how hot, cold, wet, or windy it might be!

Date:

Astronomy

Feb. 07, 2013 Rise Set
Actual Time 7:36 AM CST 5:40 PM CST
Civil Twilight 7:05 AM CST 6:11 PM CST
Nautical Twilight 6:30 AM CST 6:46 PM CST
Astronomical Twilight 5:56 AM CST 7:20 PM CST
Moon 5:21 AM CST (2/7) 3:02 PM CST (2/7)
Length of Visible Light 11h 05m
Length of Day
10h 04m
Waning Crescent, 9% of the Moon is Illuminated
Feb 7
Waning Crescent
Feb 10
New
Feb 17
First Quarter
Feb 25
Full
Mar 4
Last Quarter

Hourly Weather History & Observations

Time (CST) Temp. Windchill Dew Point Humidity Pressure Visibility Wind Dir Wind Speed Gust Speed Precip Events Conditions
12:13 AM 24.8 °F 16.1 °F 19.4 °F 80% 30.02 in 7.0 mi North 8.1 mph - N/A   Unknown
12:34 AM 24.8 °F 16.1 °F 19.4 °F 80% 30.02 in 7.0 mi NNE 8.1 mph - N/A   Overcast
12:53 AM 24.8 °F 17.9 °F 19.4 °F 80% 30.03 in 7.0 mi North 5.8 mph - N/A   Overcast
1:13 AM 24.8 °F 15.3 °F 19.4 °F 80% 30.04 in 7.0 mi North 9.2 mph - N/A   Overcast
1:33 AM 24.8 °F 16.1 °F 19.4 °F 80% 30.04 in 7.0 mi North 8.1 mph - N/A   Overcast
1:53 AM 24.8 °F 16.1 °F 21.2 °F 86% 30.04 in 5.0 mi North 8.1 mph - N/A   Overcast
2:14 AM 23.0 °F 13.9 °F 21.2 °F 93% 30.05 in 4.0 mi North 8.1 mph - N/A   Overcast
2:33 AM 23.0 °F 13.9 °F 21.2 °F 93% 30.05 in 4.0 mi North 8.1 mph - N/A   Overcast
2:53 AM 23.0 °F 13.9 °F 21.2 °F 93% 30.06 in 4.0 mi North 8.1 mph - N/A   Overcast
3:13 AM 24.8 °F 16.1 °F 21.2 °F 86% 30.06 in 4.0 mi North 8.1 mph - N/A   Overcast
3:33 AM 23.0 °F 13.9 °F 21.2 °F 93% 30.06 in 4.0 mi North 8.1 mph - N/A   Overcast
3:54 AM 23.0 °F 14.7 °F 21.2 °F 93% 30.06 in 4.0 mi North 6.9 mph - N/A   Overcast
4:13 AM 23.0 °F 13.9 °F 21.2 °F 93% 30.06 in 4.0 mi North 8.1 mph - N/A   Overcast
4:33 AM 23.0 °F 14.7 °F 21.2 °F 93% 30.06 in 3.0 mi North 6.9 mph - N/A   Overcast
4:54 AM 23.0 °F 14.7 °F 21.2 °F 93% 30.06 in 4.0 mi North 6.9 mph - N/A   Overcast
5:13 AM 23.0 °F 14.7 °F 21.2 °F 93% 30.07 in 4.0 mi North 6.9 mph - N/A   Overcast
5:33 AM 23.0 °F 13.1 °F 19.4 °F 86% 30.07 in 5.0 mi North 9.2 mph - N/A   Overcast
5:53 AM 23.0 °F 11.7 °F 19.4 °F 86% 30.09 in 5.0 mi North 11.5 mph - N/A   Overcast
6:13 AM 23.0 °F 11.7 °F 19.4 °F 86% 30.09 in 7.0 mi North 11.5 mph - N/A   Overcast
6:33 AM 23.0 °F 11.7 °F 19.4 °F 86% 30.09 in 5.0 mi North 11.5 mph - N/A   Overcast
6:53 AM 23.0 °F 11.7 °F 19.4 °F 86% 30.10 in 5.0 mi North 11.5 mph - N/A   Overcast
7:14 AM 21.2 °F 8.9 °F 19.4 °F 93% 30.10 in 5.0 mi North 12.7 mph - N/A   Overcast
7:33 AM 21.2 °F 9.5 °F 19.4 °F 93% 30.10 in 5.0 mi North 11.5 mph - N/A   Overcast
7:53 AM 21.2 °F 10.1 °F 19.4 °F 93% 30.12 in 5.0 mi North 10.4 mph - N/A   Overcast
8:14 AM 21.2 °F 10.9 °F 19.4 °F 93% 30.12 in 4.0 mi North 9.2 mph - N/A   Overcast
8:33 AM 21.2 °F 9.5 °F 19.4 °F 93% 30.13 in 5.0 mi North 11.5 mph - N/A   Overcast
9:13 AM 23.0 °F 12.4 °F 21.2 °F 93% 30.15 in 5.0 mi North 10.4 mph - N/A   Overcast
9:33 AM 23.0 °F 13.1 °F 21.2 °F 93% 30.16 in 5.0 mi North 9.2 mph - N/A   Overcast
9:53 AM 24.8 °F 15.3 °F 21.2 °F 86% 30.17 in 7.0 mi North 9.2 mph - N/A   Overcast
10:13 AM 24.8 °F 14.6 °F 21.2 °F 86% 30.17 in 7.0 mi North 10.4 mph - N/A   Overcast
10:33 AM 24.8 °F 14.0 °F 21.2 °F 86% 30.19 in 7.0 mi North 11.5 mph - N/A   Overcast
10:53 AM 24.8 °F 14.6 °F 21.2 °F 86% 30.18 in 7.0 mi North 10.4 mph - N/A   Overcast
11:13 AM 24.8 °F 15.3 °F 21.2 °F 86% 30.18 in 7.0 mi North 9.2 mph - N/A   Overcast
11:34 AM 26.6 °F 18.2 °F 21.2 °F 80% 30.18 in 7.0 mi North 8.1 mph - N/A   Overcast
11:53 AM 26.6 °F 18.2 °F 21.2 °F 80% 30.18 in 10.0 mi North 8.1 mph - N/A   Overcast
12:14 PM 26.6 °F 17.5 °F 21.2 °F 80% 30.18 in 10.0 mi NNW 9.2 mph - N/A   Overcast
12:33 PM 26.6 °F 17.5 °F 21.2 °F 80% 30.18 in 10.0 mi NNW 9.2 mph - N/A   Overcast
12:53 PM 26.6 °F 16.8 °F 21.2 °F 80% 30.18 in 10.0 mi North 10.4 mph - N/A   Overcast
1:14 PM 26.6 °F 16.8 °F 21.2 °F 80% 30.18 in 10.0 mi NNW 10.4 mph - N/A   Overcast
1:33 PM 26.6 °F 16.2 °F 21.2 °F 80% 30.18 in 7.0 mi NNW 11.5 mph - N/A   Overcast
1:53 PM 26.6 °F 16.2 °F 21.2 °F 80% 30.18 in 10.0 mi NNW 11.5 mph - N/A   Overcast
2:14 PM 26.6 °F 14.7 °F 21.2 °F 80% 30.18 in 10.0 mi NNW 15.0 mph - N/A   Overcast
2:34 PM 26.6 °F 15.2 °F 21.2 °F 80% 30.17 in 10.0 mi North 13.8 mph - N/A   Overcast
2:54 PM 26.6 °F 15.7 °F 21.2 °F 80% 30.17 in 10.0 mi North 12.7 mph - N/A   Overcast
3:13 PM 26.6 °F 16.2 °F 23.0 °F 86% 30.18 in 10.0 mi North 11.5 mph - N/A   Overcast
3:34 PM 26.6 °F 15.7 °F 21.2 °F 80% 30.18 in 10.0 mi North 12.7 mph - N/A   Overcast
3:54 PM 26.6 °F 16.2 °F 21.2 °F 80% 30.19 in 10.0 mi North 11.5 mph - N/A   Overcast
4:15 PM 26.6 °F 16.2 °F 21.2 °F 80% 30.20 in 10.0 mi North 11.5 mph - N/A   Overcast
4:34 PM 26.6 °F 17.5 °F 21.2 °F 80% 30.21 in 10.0 mi North 9.2 mph - N/A   Overcast
4:54 PM 26.6 °F 16.8 °F 21.2 °F 80% 30.21 in 10.0 mi North 10.4 mph - N/A   Overcast
5:34 PM 24.8 °F 16.9 °F 19.4 °F 80% 30.22 in 10.0 mi NNE 6.9 mph - N/A   Overcast
5:53 PM 24.8 °F 15.3 °F 19.4 °F 80% 30.22 in 10.0 mi NNE 9.2 mph - N/A   Overcast
6:14 PM 24.8 °F 16.1 °F 19.4 °F 80% 30.23 in 10.0 mi NE 8.1 mph - N/A   Overcast
6:34 PM 24.8 °F 15.3 °F 19.4 °F 80% 30.24 in 10.0 mi NNE 9.2 mph - N/A   Overcast
6:53 PM 24.8 °F 17.9 °F 19.4 °F 80% 30.25 in 10.0 mi NNW 5.8 mph - N/A   Overcast
7:13 PM 24.8 °F 20.5 °F 19.4 °F 80% 30.26 in 10.0 mi North 3.5 mph - N/A   Overcast
7:34 PM 23.0 °F 17.0 °F 19.4 °F 86% 30.26 in 10.0 mi NW 4.6 mph - N/A   Overcast
7:53 PM 23.0 °F 17.0 °F 19.4 °F 86% 30.26 in 10.0 mi NNW 4.6 mph - N/A   Overcast
8:13 PM 21.2 °F 13.6 °F 19.4 °F 93% 30.26 in 10.0 mi NW 5.8 mph - N/A   Overcast
8:33 PM 21.2 °F 14.9 °F 19.4 °F 93% 30.27 in 10.0 mi NW 4.6 mph - N/A   Overcast
8:53 PM 21.2 °F 16.4 °F 19.4 °F 93% 30.27 in 10.0 mi NW 3.5 mph - N/A   Overcast
9:13 PM 21.2 °F - 19.4 °F 93% 30.26 in 10.0 mi Calm Calm - N/A   Overcast
9:34 PM 21.2 °F 11.7 °F 17.6 °F 86% 30.27 in 10.0 mi NNW 8.1 mph - N/A   Overcast
9:53 PM 19.4 °F 11.5 °F 15.8 °F 86% 30.27 in 7.0 mi NNW 5.8 mph - N/A   Overcast
10:14 PM 17.6 °F 9.3 °F 15.8 °F 93% 30.28 in 10.0 mi NNW 5.8 mph - N/A   Overcast
10:33 PM 17.6 °F 12.3 °F 15.8 °F 93% 30.28 in 10.0 mi NW 3.5 mph - N/A   Overcast
10:54 PM 17.6 °F - 14.0 °F 86% 30.29 in 10.0 mi Calm Calm - N/A   Overcast
11:13 PM 17.6 °F 12.3 °F 14.0 °F 86% 30.30 in 10.0 mi NNE 3.5 mph - N/A   Overcast
11:33 PM 17.6 °F - 15.8 °F 93% 30.29 in 10.0 mi Calm Calm - N/A   Overcast
11:53 PM 17.6 °F 10.7 °F 14.0 °F 86% 30.29 in 10.0 mi NNW 4.6 mph - N/A   Overcast